Regional Weather Roundup
Issued by NWS Kansas City/Pleasant Hill, MO

Home | Current Version | Previous Version | Graphics & Text | Print | Product List | Glossary Off
Versions: 1 2 3 4 5 6 7 8 9 10 11 12 13 14 15 16 17 18 19 20 21 22 23 24 25 26 27 28 29 30 31 32 33 34 35 36 37 38 39 40 41 42 43 44 45 46 47 48 49 50

000
ASUS43 KEAX 202211
RWREAX

WEATHER ROUNDUP FOR EASTERN KANSAS AND NORTHWEST MISSOURI
NATIONAL WEATHER SERVICE KANSAS CITY/PLEASANT HILL MO
500 PM CDT WED AUG 20 2014

KSZ040-057-103>105-MOZ028-029-037-043-202300-
...KANSAS CITY METROPOLITAN AREA...

CITY           SKY/WX    TMP DP  RH WIND       PRES   REMARKS
K.C. INTL      MOSUNNY   92  70  48 S14G22    29.84F HX  97
K.C. DOWNTOWN  PTSUNNY   93  70  46 S14       29.83F HX  99
LEES SUMMIT    SUNNY     91  71  51 S10G21    29.86F HX  97
OLATHE - IXD   PTSUNNY   94  68  42 S17G26    29.85F HX  98
OLATHE - OJC   MOSUNNY   91  70  49 S14G24    29.85F HX  96
LAWRENCE       MOSUNNY   97  71  42 S14       29.82S HX 104

$$

MOZ001>008-011>017-020>025-030>033-038>040-044>046-053-054-202300-
...NORTHERN AND CENTRAL MISSOURI...

CITY           SKY/WX    TMP DP  RH WIND       PRES   REMARKS
ST. JOSEPH     PTSUNNY   90  73  57 SE10      29.83S HX  98
MOSBY          PTCLDY    88  72  58 E6        29.84F HX  94
WHITEMAN AFB   MOSUNNY   92  73  53 S10       29.87F HX  99
CLINTON        MOSUNNY   91  73  55 S9        29.89S HX 100
SEDALIA        MOSUNNY   92  71  50 S7        29.90F HX  98
WARSAW         NOT AVBL
MARSHALL       MOSUNNY   91  77  62 SE8       29.89F HX 105
CHILLICOTHE      N/A     90  74  59 S9        29.88S HX  99
MOBERLY        SUNNY     91  72  52 S6        29.91F HX  98
KIRKSVILLE     MOSUNNY   86  75  69 SE10      29.92F HX  95

$$

MOZ041-047>049-056>058-063>065-088>090-097-202300-
...EASTERN AND SOUTHERN MISSOURI...

CITY           SKY/WX    TMP DP  RH WIND       PRES   REMARKS
ST. LOUIS INTL MOSUNNY   87  73  62 E10       29.94F HX  94
SPIRIT OF STL  MOSUNNY   88  75  65 E7        29.90F HX  97
COLUMBIA       SUNNY     91  72  53 SW8       29.91F HX  98
JEFFERSON CITY SUNNY     92  70  48 SE8       29.88F HX  97
MEXICO         SUNNY     91  79  66 S3        29.91F HX 107
HANNIBAL       MOSUNNY   90  70  51 S8        29.92F HX  95
ROLLA          MOSUNNY   92  67  43 S13G20    29.91F HX  95
LEBANON        PTSUNNY   88  64  45 S9        29.96R
OSAGE BEACH    PTSUNNY   86  70  58 SW9G30    29.93R HX  90
SPRINGFIELD    PTSUNNY   91  63  39 SW17      29.95S HX  92
BRANSON        PTSUNNY   93  57  29 S9G18     29.99S HX  92
NEVADA         SUNNY     93  68  43 S14G22    29.91S HX  97
JOPLIN         SUNNY     92  67  43 S17       29.93S HX  95
WEST PLAINS    MOSUNNY   92  65  40 SW10      29.98F HX  94

$$

IAZ060-094-KSZ022-034>040-054-083-096-NEZ052-066-093-202300-
...KANSAS...SOUTHEAST NEBRASKA AND IOWA...

CITY           SKY/WX    TMP DP  RH WIND       PRES   REMARKS
TOPEKA         MOSUNNY   96  69  41 S12G20    29.80F HX 102
MANHATTAN      MOSUNNY   97  68  38 S17G24    29.77S HX 102
EMPORIA        SUNNY     94  68  42 S20G28    29.83S HX  98
CHANUTE        SUNNY     93  69  45 S18G28    29.87F HX  98
WICHITA        MOSUNNY   94  67  41 S25G36    29.80F HX  97
OMAHA          PTSUNNY   89  73  59 SE18      29.79S HX  97
LINCOLN        SUNNY     95  67  39 S17G26    29.76F HX  99
FALLS CITY     MOSUNNY   92  72  51 SE13G22   29.80S HX  99
LAMONI         MOSUNNY   85  73  67 SE13G21   29.88S HX  91
DES MOINES     CLOUDY    83  71  67 S9        29.86R

$$



USA.gov is the U.S. government's official web portal to all federal, state and local government web resources and services.